Time,TemperatureF,DewpointF,PressureIn,WindDirection,WindDirectionDegrees,WindSpeedMPH,WindSpeedGustMPH,Humidity,HourlyPrecipIn,Conditions,Clouds,dailyrainin,SoftwareType,DateUTC
2013-02-02 00:03:00,35.0,-99.9,30.39,North,-999,-999.0,-999.0,-999,-99.99,,,-99.99,,2013-02-02 05:03:00,
2013-02-02 00:12:00,35.0,-99.9,30.38,North,349,8.0,13.0,-999,-99.99,,,-99.99,,2013-02-02 05:12:00,
2013-02-02 00:22:00,35.0,-99.9,30.39,North,-999,-999.0,-999.0,-999,-99.99,,,-99.99,,2013-02-02 05:22:00,
2013-02-02 00:33:00,-999.0,-99.9,30.39,NNW,346,11.0,12.0,-999,-99.99,,,-99.99,,2013-02-02 05:33:00,
2013-02-02 00:42:00,-999.0,-99.9,30.39,NNW,346,9.0,14.0,-999,-99.99,,,-99.99,,2013-02-02 05:42:00,
2013-02-02 00:52:00,34.0,-99.9,30.39,North,-999,-999.0,-999.0,-999,-99.99,,,-99.99,,2013-02-02 05:52:00,
2013-02-02 01:02:00,-999.0,-99.9,30.39,North,0,8.0,12.0,-999,-99.99,,,-99.99,,2013-02-02 06:02:00,
2013-02-02 01:12:00,34.0,-99.9,30.39,North,-999,-999.0,-999.0,-999,-99.99,,,-99.99,,2013-02-02 06:12:00,
2013-02-02 01:22:00,34.0,-99.9,30.39,North,-999,-999.0,-999.0,-999,-99.99,,,-99.99,,2013-02-02 06:22:00,
2013-02-02 01:32:00,34.0,-99.9,30.39,North,-999,-999.0,-999.0,-999,-99.99,,,-99.99,,2013-02-02 06:32:00,
2013-02-02 01:42:00,33.0,-99.9,30.39,NNE,28,4.0,8.0,-999,-99.99,,,-99.99,,2013-02-02 06:42:00,
2013-02-02 01:52:00,-999.0,-99.9,30.39,NNE,29,5.0,8.0,-999,-99.99,,,-99.99,,2013-02-02 06:52:00,
2013-02-02 02:02:00,32.0,-99.9,30.39,North,-999,-999.0,-999.0,-999,-99.99,,,-99.99,,2013-02-02 07:02:00,
2013-02-02 02:12:00,-999.0,-99.9,30.40,NNE,19,4.0,8.0,-999,-99.99,,,-99.99,,2013-02-02 07:12:00,
2013-02-02 02:21:00,-999.0,-99.9,30.39,NNE,27,4.0,7.0,-999,-99.99,,,-99.99,,2013-02-02 07:21:00,
2013-02-02 02:32:00,-999.0,-99.9,30.39,NE,39,4.0,6.0,-999,-99.99,,,-99.99,,2013-02-02 07:32:00,
2013-02-02 02:42:00,-999.0,-99.9,30.39,NE,38,4.0,7.0,-999,-99.99,,,-99.99,,2013-02-02 07:42:00,
2013-02-02 02:52:00,30.0,-99.9,30.39,North,-999,-999.0,-999.0,-999,-99.99,,,-99.99,,2013-02-02 07:52:00,
2013-02-02 03:01:00,30.0,-99.9,30.38,North,-999,-999.0,-999.0,-999,-99.99,,,-99.99,,2013-02-02 08:01:00,
2013-02-02 03:11:00,29.0,-99.9,30.39,North,-999,-999.0,-999.0,-999,-99.99,,,-99.99,,2013-02-02 08:11:00,
2013-02-02 03:21:00,-999.0,-99.9,30.38,NNE,21,5.0,8.0,-999,-99.99,,,-99.99,,2013-02-02 08:21:00,
2013-02-02 03:32:00,-999.0,-99.9,30.38,NNE,25,5.0,7.0,-999,-99.99,,,-99.99,,2013-02-02 08:32:00,
2013-02-02 03:42:00,-999.0,-99.9,30.38,NNE,17,5.0,7.0,-999,-99.99,,,-99.99,,2013-02-02 08:42:00,
2013-02-02 03:53:00,30.0,-99.9,30.39,North,-999,-999.0,-999.0,-999,-99.99,,,-99.99,,2013-02-02 08:53:00,
2013-02-02 04:02:00,30.0,-99.9,30.38,North,-999,-999.0,-999.0,-999,-99.99,,,-99.99,,2013-02-02 09:02:00,
2013-02-02 04:11:00,30.0,-99.9,30.38,NNE,16,5.0,7.0,-999,-99.99,,,-99.99,,2013-02-02 09:11:00,
2013-02-02 04:22:00,30.0,-99.9,30.37,North,-999,-999.0,-999.0,-999,-99.99,,,-99.99,,2013-02-02 09:22:00,
2013-02-02 04:32:00,-999.0,-99.9,30.38,North,11,4.0,10.0,-999,-99.99,,,-99.99,,2013-02-02 09:32:00,
2013-02-02 04:42:00,-999.0,-99.9,30.38,North,9,6.0,11.0,-999,-99.99,,,-99.99,,2013-02-02 09:42:00,
2013-02-02 04:52:00,-999.0,-99.9,30.38,North,8,6.0,12.0,-999,-99.99,,,-99.99,,2013-02-02 09:52:00,
2013-02-02 05:02:00,31.0,-99.9,30.38,North,-999,-999.0,-999.0,-999,-99.99,,,-99.99,,2013-02-02 10:02:00,
2013-02-02 05:11:00,-999.0,-99.9,30.38,North,3,9.0,13.0,-999,-99.99,,,-99.99,,2013-02-02 10:11:00,
2013-02-02 05:21:00,-999.0,-99.9,30.39,NNE,19,5.0,9.0,-999,-99.99,,,-99.99,,2013-02-02 10:21:00,
2013-02-02 05:32:00,31.0,-99.9,30.39,North,-999,-999.0,-999.0,-999,-99.99,,,-99.99,,2013-02-02 10:32:00,
2013-02-02 05:42:00,-999.0,-99.9,30.39,North,1,10.0,12.0,-999,-99.99,,,-99.99,,2013-02-02 10:42:00,
2013-02-02 05:52:00,-999.0,-99.9,30.39,NNE,16,6.0,13.0,-999,-99.99,,,-99.99,,2013-02-02 10:52:00,
2013-02-02 06:02:00,30.0,-99.9,30.39,North,-999,-999.0,-999.0,-999,-99.99,,,-99.99,,2013-02-02 11:02:00,
2013-02-02 06:11:00,-999.0,-99.9,30.39,North,5,7.0,11.0,-999,-99.99,,,-99.99,,2013-02-02 11:11:00,
2013-02-02 06:22:00,-999.0,-99.9,30.40,NNE,17,4.0,11.0,-999,-99.99,,,-99.99,,2013-02-02 11:22:00,
2013-02-02 06:32:00,-999.0,-99.9,30.39,North,2,7.0,11.0,-999,-99.99,,,-99.99,,2013-02-02 11:32:00,
2013-02-02 06:52:00,-999.0,-99.9,30.40,North,2,5.0,8.0,-999,-99.99,,,-99.99,,2013-02-02 11:52:00,
2013-02-02 07:02:00,-999.0,-99.9,30.40,NNE,17,5.0,8.0,-999,-99.99,,,-99.99,,2013-02-02 12:02:00,
2013-02-02 07:11:00,29.0,-99.9,30.39,NNE,24,4.0,8.0,-999,-99.99,,,-99.99,,2013-02-02 12:11:00,
2013-02-02 07:22:00,-999.0,-99.9,30.39,NNE,29,4.0,9.0,-999,-99.99,,,-99.99,,2013-02-02 12:22:00,
2013-02-02 07:32:00,28.0,-99.9,30.39,North,-999,-999.0,-999.0,-999,-99.99,,,-99.99,,2013-02-02 12:32:00,
2013-02-02 07:53:00,30.0,-99.9,30.40,North,-999,-999.0,-999.0,-999,-99.99,,,-99.99,,2013-02-02 12:53:00,
2013-02-02 08:03:00,30.0,-99.9,30.40,North,-999,-999.0,-999.0,-999,-99.99,,,-99.99,,2013-02-02 13:03:00,
2013-02-02 08:11:00,31.0,-99.9,30.41,North,-999,-999.0,-999.0,-999,-99.99,,,-99.99,,2013-02-02 13:11:00,
2013-02-02 08:22:00,-999.0,-99.9,30.41,NNE,27,4.0,8.0,-999,-99.99,,,-99.99,,2013-02-02 13:22:00,
2013-02-02 08:33:00,-999.0,-99.9,30.41,North,7,4.0,7.0,-999,-99.99,,,-99.99,,2013-02-02 13:33:00,
2013-02-02 08:43:00,32.0,-99.9,30.41,NNE,13,3.0,8.0,-999,-99.99,,,-99.99,,2013-02-02 13:43:00,
2013-02-02 08:52:00,-999.0,-99.9,30.41,NNE,29,4.0,6.0,-999,-99.99,,,-99.99,,2013-02-02 13:52:00,
2013-02-02 09:03:00,-999.0,-99.9,30.41,NNE,33,3.0,4.0,-999,-99.99,,,-99.99,,2013-02-02 14:03:00,
2013-02-02 09:12:00,-999.0,-99.9,30.41,NNE,28,3.0,5.0,-999,-99.99,,,-99.99,,2013-02-02 14:12:00,
2013-02-02 09:22:00,33.0,-99.9,30.41,North,-999,-999.0,-999.0,-999,-99.99,,,-99.99,,2013-02-02 14:22:00,
2013-02-02 09:33:00,33.0,-99.9,30.41,North,-999,-999.0,-999.0,-999,-99.99,,,-99.99,,2013-02-02 14:33:00,
2013-02-02 09:52:00,-999.0,-99.9,30.41,North,2,3.0,5.0,-999,-99.99,,,-99.99,,2013-02-02 14:52:00,
2013-02-02 10:03:00,34.0,-99.9,30.41,North,-999,-999.0,-999.0,-999,-99.99,,,-99.99,,2013-02-02 15:03:00,
2013-02-02 10:13:00,34.0,-99.9,30.41,North,-999,-999.0,-999.0,-999,-99.99,,,-99.99,,2013-02-02 15:13:00,
2013-02-02 10:22:00,-999.0,-99.9,30.40,SW,215,1.0,3.0,-999,-99.99,,,-99.99,,2013-02-02 15:22:00,
2013-02-02 10:33:00,36.0,-99.9,30.40,North,-999,-999.0,-999.0,-999,-99.99,,,-99.99,,2013-02-02 15:33:00,
2013-02-02 10:42:00,-999.0,-99.9,30.40,South,183,4.0,6.0,-999,-99.99,,,-99.99,,2013-02-02 15:42:00,
2013-02-02 10:52:00,-999.0,-99.9,30.40,WSW,238,3.0,5.0,-999,-99.99,,,-99.99,,2013-02-02 15:52:00,
2013-02-02 11:03:00,35.0,-99.9,30.40,North,-999,-999.0,-999.0,-999,-99.99,,,-99.99,,2013-02-02 16:03:00,
2013-02-02 11:12:00,-999.0,-99.9,30.40,South,184,3.0,4.0,-999,-99.99,,,-99.99,,2013-02-02 16:12:00,
2013-02-02 11:23:00,36.0,-99.9,30.40,North,-999,-999.0,-999.0,-999,-99.99,,,-99.99,,2013-02-02 16:23:00,
2013-02-02 11:32:00,36.0,-99.9,30.39,North,-999,-999.0,-999.0,-999,-99.99,,,-99.99,,2013-02-02 16:32:00,
2013-02-02 11:42:00,36.0,-99.9,30.38,North,-999,-999.0,-999.0,-999,-99.99,,,-99.99,,2013-02-02 16:42:00,
2013-02-02 11:52:00,-999.0,-99.9,30.38,South,188,4.0,5.0,-999,-99.99,,,-99.99,,2013-02-02 16:52:00,
2013-02-02 12:03:00,37.0,-99.9,30.37,North,-999,-999.0,-999.0,-999,-99.99,,,-99.99,,2013-02-02 17:03:00,
2013-02-02 12:12:00,-999.0,-99.9,30.37,South,186,4.0,6.0,-999,-99.99,,,-99.99,,2013-02-02 17:12:00,
2013-02-02 12:23:00,-999.0,-99.9,30.36,South,186,4.0,6.0,-999,-99.99,,,-99.99,,2013-02-02 17:23:00,
2013-02-02 12:33:00,-999.0,-99.9,30.36,South,191,5.0,6.0,-999,-99.99,,,-99.99,,2013-02-02 17:33:00,
2013-02-02 12:53:00,-999.0,-99.9,30.34,South,186,6.0,8.0,-999,-99.99,,,-99.99,,2013-02-02 17:53:00,
2013-02-02 13:03:00,-999.0,-99.9,30.33,South,191,5.0,6.0,-999,-99.99,,,-99.99,,2013-02-02 18:03:00,
2013-02-02 13:12:00,-999.0,-99.9,30.32,South,183,5.0,6.0,-999,-99.99,,,-99.99,,2013-02-02 18:12:00,
2013-02-02 13:22:00,-999.0,-99.9,30.32,South,181,5.0,7.0,-999,-99.99,,,-99.99,,2013-02-02 18:22:00,
2013-02-02 13:32:00,-999.0,-99.9,30.31,South,171,4.0,6.0,-999,-99.99,,,-99.99,,2013-02-02 18:32:00,
2013-02-02 13:52:00,38.0,-99.9,30.30,North,-999,-999.0,-999.0,-999,-99.99,,,-99.99,,2013-02-02 18:52:00,
2013-02-02 14:02:00,39.0,-99.9,30.29,North,-999,-999.0,-999.0,-999,-99.99,,,-99.99,,2013-02-02 19:02:00,
2013-02-02 14:12:00,-999.0,-99.9,30.29,South,183,7.0,8.0,-999,-99.99,,,-99.99,,2013-02-02 19:12:00,
2013-02-02 14:22:00,39.0,-99.9,30.28,North,-999,-999.0,-999.0,-999,-99.99,,,-99.99,,2013-02-02 19:22:00,
2013-02-02 14:33:00,-999.0,-99.9,30.27,South,188,5.0,8.0,-999,-99.99,,,-99.99,,2013-02-02 19:33:00,
2013-02-02 14:42:00,-999.0,-99.9,30.26,South,179,6.0,8.0,-999,-99.99,,,-99.99,,2013-02-02 19:42:00,
2013-02-02 14:52:00,-999.0,-99.9,30.26,South,187,5.0,7.0,-999,-99.99,,,-99.99,,2013-02-02 19:52:00,
2013-02-02 15:02:00,40.0,-99.9,30.25,North,-999,-999.0,-999.0,-999,-99.99,,,-99.99,,2013-02-02 20:02:00,
2013-02-02 15:22:00,40.0,-99.9,30.24,North,-999,-999.0,-999.0,-999,-99.99,,,-99.99,,2013-02-02 20:22:00,
2013-02-02 15:32:00,-999.0,-99.9,30.24,South,171,4.0,6.0,-999,-99.99,,,-99.99,,2013-02-02 20:32:00,
2013-02-02 15:52:00,43.0,-99.9,30.23,North,-999,-999.0,-999.0,-999,-99.99,,,-99.99,,2013-02-02 20:52:00,
2013-02-02 16:02:00,43.0,-99.9,30.22,North,-999,-999.0,-999.0,-999,-99.99,,,-99.99,,2013-02-02 21:02:00,
2013-02-02 16:11:00,43.0,-99.9,30.21,North,-999,-999.0,-999.0,-999,-99.99,,,-99.99,,2013-02-02 21:11:00,
2013-02-02 16:22:00,43.0,-99.9,30.21,North,-999,-999.0,-999.0,-999,-99.99,,,-99.99,,2013-02-02 21:22:00,
2013-02-02 16:32:00,-999.0,-99.9,30.21,South,179,5.0,7.0,-999,-99.99,,,-99.99,,2013-02-02 21:32:00,
2013-02-02 16:43:00,-999.0,-99.9,30.21,SSW,192,7.0,8.0,-999,-99.99,,,-99.99,,2013-02-02 21:43:00,
2013-02-02 16:52:00,-999.0,-99.9,30.20,South,189,6.0,8.0,-999,-99.99,,,-99.99,,2013-02-02 21:52:00,
2013-02-02 17:03:00,-999.0,-99.9,30.20,South,186,7.0,8.0,-999,-99.99,,,-99.99,,2013-02-02 22:03:00,
2013-02-02 17:12:00,-999.0,-99.9,30.20,South,189,6.0,9.0,-999,-99.99,,,-99.99,,2013-02-02 22:12:00,
2013-02-02 17:22:00,43.0,-99.9,30.19,North,-999,-999.0,-999.0,-999,-99.99,,,-99.99,,2013-02-02 22:22:00,
2013-02-02 17:32:00,43.0,-99.9,30.19,North,-999,-999.0,-999.0,-999,-99.99,,,-99.99,,2013-02-02 22:32:00,
2013-02-02 17:42:00,43.0,-99.9,30.18,North,-999,-999.0,-999.0,-999,-99.99,,,-99.99,,2013-02-02 22:42:00,
2013-02-02 17:52:00,-999.0,-99.9,30.18,SSE,160,7.0,9.0,-999,-99.99,,,-99.99,,2013-02-02 22:52:00,
2013-02-02 18:02:00,43.0,-99.9,30.17,North,-999,-999.0,-999.0,-999,-99.99,,,-99.99,,2013-02-02 23:02:00,
2013-02-02 18:22:00,-999.0,-99.9,30.17,SSW,201,4.0,6.0,-999,-99.99,,,-99.99,,2013-02-02 23:22:00,
2013-02-02 18:33:00,43.0,-99.9,30.17,North,-999,-999.0,-999.0,-999,-99.99,,,-99.99,,2013-02-02 23:33:00,
2013-02-02 18:52:00,43.0,-99.9,30.17,North,-999,-999.0,-999.0,-999,-99.99,,,-99.99,,2013-02-02 23:52:00,
2013-02-02 19:02:00,42.0,-99.9,30.16,North,-999,-999.0,-999.0,-999,-99.99,,,-99.99,,2013-02-03 00:02:00,
2013-02-02 19:11:00,-999.0,-99.9,30.16,WSW,248,1.0,2.0,-999,-99.99,,,-99.99,,2013-02-03 00:11:00,
2013-02-02 19:22:00,-999.0,-99.9,30.15,South,169,1.0,2.0,-999,-99.99,,,-99.99,,2013-02-03 00:22:00,
2013-02-02 19:32:00,42.0,-99.9,30.15,North,-999,-999.0,-999.0,-999,-99.99,,,-99.99,,2013-02-03 00:32:00,
2013-02-02 19:52:00,-999.0,-99.9,30.14,NW,308,2.0,3.0,-999,-99.99,,,-99.99,,2013-02-03 00:52:00,
2013-02-02 20:02:00,43.0,-99.9,30.13,North,-999,-999.0,-999.0,-999,-99.99,,,-99.99,,2013-02-03 01:02:00,
2013-02-02 20:21:00,-999.0,-99.9,30.13,WNW,301,1.0,2.0,-999,-99.99,,,-99.99,,2013-02-03 01:21:00,
2013-02-02 20:32:00,-999.0,-99.9,30.12,NW,308,3.0,4.0,-999,-99.99,,,-99.99,,2013-02-03 01:32:00,
2013-02-02 20:42:00,-999.0,-99.9,30.12,NE,53,1.0,5.0,-999,-99.99,,,-99.99,,2013-02-03 01:42:00,
2013-02-02 20:52:00,41.0,-99.9,30.11,North,-999,-999.0,-999.0,-999,-99.99,,,-99.99,,2013-02-03 01:52:00,
2013-02-02 21:01:00,-999.0,-99.9,30.10,East,82,1.0,4.0,-999,-99.99,,,-99.99,,2013-02-03 02:01:00,
2013-02-02 21:11:00,-999.0,-99.9,30.10,NNE,29,2.0,4.0,-999,-99.99,,,-99.99,,2013-02-03 02:11:00,
2013-02-02 21:22:00,-999.0,-99.9,30.09,SE,141,1.0,4.0,-999,-99.99,,,-99.99,,2013-02-03 02:22:00,
2013-02-02 21:32:00,-999.0,-99.9,30.08,SE,145,2.0,3.0,-999,-99.99,,,-99.99,,2013-02-03 02:32:00,
2013-02-02 21:42:00,-999.0,-99.9,30.08,NW,306,0.0,3.0,-999,-99.99,,,-99.99,,2013-02-03 02:42:00,
2013-02-02 21:53:00,42.0,-99.9,30.07,North,-999,-999.0,-999.0,-999,-99.99,,,-99.99,,2013-02-03 02:53:00,
2013-02-02 22:02:00,-999.0,-99.9,30.07,East,90,0.0,2.0,-999,-99.99,,,-99.99,,2013-02-03 03:02:00,
2013-02-02 22:11:00,42.0,-99.9,30.06,ESE,121,-999.0,1.0,-999,-99.99,,,-99.99,,2013-02-03 03:11:00,
2013-02-02 22:22:00,43.0,-99.9,30.06,North,-999,-999.0,-999.0,-999,-99.99,,,-99.99,,2013-02-03 03:22:00,
2013-02-02 22:32:00,-999.0,-99.9,30.06,SSE,155,0.0,2.0,-999,-99.99,,,-99.99,,2013-02-03 03:32:00,
2013-02-02 22:42:00,43.0,-99.9,30.06,North,-999,-999.0,-999.0,-999,-99.99,,,-99.99,,2013-02-03 03:42:00,
2013-02-02 22:52:00,-999.0,-99.9,30.05,ESE,114,1.0,2.0,-999,-99.99,,,-99.99,,2013-02-03 03:52:00,
2013-02-02 23:02:00,-999.0,-99.9,30.05,NNE,31,1.0,2.0,-999,-99.99,,,-99.99,,2013-02-03 04:02:00,
2013-02-02 23:22:00,-999.0,-99.9,30.05,WNW,295,3.0,3.0,-999,-99.99,,,-99.99,,2013-02-03 04:22:00,
2013-02-02 23:32:00,-999.0,-99.9,30.05,NW,323,2.0,3.0,-999,-99.99,,,-99.99,,2013-02-03 04:32:00,
2013-02-02 23:42:00,44.0,-99.9,30.04,West,279,2.0,3.0,-999,-99.99,,,-99.99,,2013-02-03 04:42:00,
2013-02-02 23:52:00,-999.0,-99.9,30.04,WSW,254,2.0,3.0,-999,-99.99,,,-99.99,,2013-02-03 04:52:00,